Location: *
(50.6089°N, 2.2719°E)
Time: 07:00:57
(UTC+00:00)

STARLINK-66 - Pass Details

Date: 18 October 2019
Orbit: 548 x 551 km, 53.0° (Epoch: 14 November)

Event Time Altitude Azimuth Distance (km) Brightness Sun altitude
Rises 17:20:43 0° 243° (WSW) 2,710 8.9 -5.1°
Reaches altitude 10° 17:22:57 10° 243° (WSW) 1,819 7.7 -5.4°
Maximum altitude 17:27:05 79° 157° (SSE) 565 3.7 -6.1°
Drops below altitude 10° 17:31:14 10° 71° (ENE) 1,827 5.6 -6.7°
Enters shadow 17:31:37 - 71° (ENE) 1,980 5.8 -6.8°
